Time,TemperatureF,DewpointF,PressureIn,WindDirection,WindDirectionDegrees,WindSpeedMPH,WindSpeedGustMPH,Humidity,HourlyPrecipIn,Conditions,Clouds,dailyrainin,SoftwareType,DateUTC
2013-04-16 00:02:00,28.2,25.6,31.05,NW,306,0.0,0.0,90,0.00,,---,0.13,VWS V14.01,2013-04-16 07:02:00,
2013-04-16 00:07:00,28.2,25.6,31.06,WNW,302,0.0,0.0,90,0.00,,---,0.00,VWS V14.01,2013-04-16 07:07:00,
2013-04-16 00:12:00,28.4,25.6,31.06,NW,309,0.0,0.0,89,0.00,,---,0.00,VWS V14.01,2013-04-16 07:12:00,
2013-04-16 00:17:00,28.4,25.6,31.06,WNW,296,0.0,0.0,89,0.00,,---,0.00,VWS V14.01,2013-04-16 07:17:00,
2013-04-16 00:22:00,28.4,25.6,31.06,NW,312,0.0,0.0,89,0.00,,---,0.00,VWS V14.01,2013-04-16 07:22:00,
2013-04-16 00:27:00,28.5,25.4,31.06,NW,319,0.0,0.0,88,0.00,,---,0.00,VWS V14.01,2013-04-16 07:27:00,
2013-04-16 00:32:00,28.5,25.1,31.06,NW,317,0.0,0.0,87,0.00,,---,0.00,VWS V14.01,2013-04-16 07:32:00,
2013-04-16 00:38:00,28.7,25.3,31.06,NW,304,0.0,0.0,87,0.00,,---,0.00,VWS V14.01,2013-04-16 07:38:00,
2013-04-16 00:43:00,28.7,25.0,31.06,NW,307,0.0,0.0,86,0.00,,---,0.00,VWS V14.01,2013-04-16 07:43:00,
2013-04-16 00:48:00,28.8,25.1,31.06,NW,307,0.0,0.0,86,0.00,,---,0.00,VWS V14.01,2013-04-16 07:48:00,
2013-04-16 00:53:00,28.8,24.9,31.06,WNW,295,0.0,0.0,85,0.00,,---,0.00,VWS V14.01,2013-04-16 07:53:00,
2013-04-16 00:58:00,29.0,25.1,31.06,WNW,299,0.0,0.0,85,0.00,,---,0.00,VWS V14.01,2013-04-16 07:58:00,
2013-04-16 01:03:00,29.0,24.8,31.06,WNW,299,0.0,0.0,84,0.00,,---,0.00,VWS V14.01,2013-04-16 08:03:00,
2013-04-16 01:08:00,29.0,24.8,31.07,NW,315,0.0,0.0,84,0.00,,---,0.00,VWS V14.01,2013-04-16 08:08:00,
2013-04-16 01:13:00,29.1,24.6,31.07,WNW,298,0.0,0.0,83,0.00,,---,0.00,VWS V14.01,2013-04-16 08:13:00,
2013-04-16 01:18:00,29.1,24.6,31.07,NW,309,0.0,0.0,83,0.00,,---,0.00,VWS V14.01,2013-04-16 08:18:00,
2013-04-16 01:23:00,29.1,24.6,31.07,NW,309,0.0,0.0,83,0.00,,---,0.00,VWS V14.01,2013-04-16 08:23:00,
2013-04-16 01:29:00,29.3,24.5,31.07,WNW,292,0.0,0.0,82,0.00,,---,0.00,VWS V14.01,2013-04-16 08:29:00,
2013-04-16 01:34:00,29.3,24.2,31.07,NW,314,0.0,0.0,81,0.00,,---,0.00,VWS V14.01,2013-04-16 08:34:00,
2013-04-16 01:39:00,29.4,24.3,31.07,NW,313,0.0,0.0,81,0.00,,---,0.00,VWS V14.01,2013-04-16 08:39:00,
2013-04-16 01:44:00,29.4,24.0,31.07,NW,311,0.0,0.0,80,0.00,,---,0.00,VWS V14.01,2013-04-16 08:44:00,
2013-04-16 01:49:00,29.4,24.0,31.07,NW,315,0.0,0.0,80,0.00,,---,0.00,VWS V14.01,2013-04-16 08:49:00,
2013-04-16 01:54:00,29.4,23.7,31.07,WNW,302,0.0,0.0,79,0.00,,---,0.00,VWS V14.01,2013-04-16 08:54:00,
2013-04-16 01:59:00,29.4,23.7,31.07,WNW,303,0.0,0.0,79,0.00,,---,0.00,VWS V14.01,2013-04-16 08:59:00,
2013-04-16 02:04:00,29.4,23.4,31.07,WNW,302,0.0,0.0,78,0.00,,---,0.00,VWS V14.01,2013-04-16 09:04:00,
2013-04-16 02:09:00,29.4,23.4,31.07,NW,322,0.0,0.0,78,0.00,,---,0.00,VWS V14.01,2013-04-16 09:09:00,
2013-04-16 02:14:00,29.4,23.4,31.07,NW,319,0.0,0.0,78,0.00,,---,0.00,VWS V14.01,2013-04-16 09:14:00,
2013-04-16 02:20:00,29.5,23.2,31.07,NW,318,0.0,0.0,77,0.00,,---,0.00,VWS V14.01,2013-04-16 09:20:00,
2013-04-16 02:25:00,29.5,23.2,31.07,NW,311,0.0,0.0,77,0.00,,---,0.00,VWS V14.01,2013-04-16 09:25:00,
2013-04-16 02:30:00,29.5,23.2,31.07,NNW,329,0.0,0.0,77,0.00,,---,0.00,VWS V14.01,2013-04-16 09:30:00,
2013-04-16 02:35:00,29.5,23.2,31.07,NW,325,0.0,0.0,77,0.00,,---,0.00,VWS V14.01,2013-04-16 09:35:00,
2013-04-16 02:40:00,29.4,23.1,31.07,NW,323,0.0,0.0,77,0.00,,---,0.00,VWS V14.01,2013-04-16 09:40:00,
2013-04-16 02:45:00,29.3,23.0,31.07,NW,319,0.0,0.0,77,0.00,,---,0.00,VWS V14.01,2013-04-16 09:45:00,
2013-04-16 02:51:00,29.3,22.7,31.07,NW,324,0.0,0.0,76,0.00,,---,0.00,VWS V14.01,2013-04-16 09:51:00,
2013-04-16 02:56:00,29.1,22.5,31.07,NNW,330,0.0,0.0,76,0.00,,---,0.00,VWS V14.01,2013-04-16 09:56:00,
2013-04-16 03:01:00,29.1,22.8,31.07,NNW,329,0.0,0.0,77,0.00,,---,0.00,VWS V14.01,2013-04-16 10:01:00,
2013-04-16 03:06:00,29.3,22.7,31.07,NW,325,0.0,0.0,76,0.00,,---,0.00,VWS V14.01,2013-04-16 10:06:00,
2013-04-16 03:11:00,29.3,22.7,31.07,NW,321,0.0,0.0,76,0.00,,---,0.00,VWS V14.01,2013-04-16 10:11:00,
2013-04-16 03:16:00,29.1,22.5,31.07,NW,306,0.0,0.0,76,0.00,,---,0.00,VWS V14.01,2013-04-16 10:16:00,
2013-04-16 03:21:00,29.0,22.4,31.07,NW,319,0.0,0.0,76,0.00,,---,0.00,VWS V14.01,2013-04-16 10:21:00,
2013-04-16 03:26:00,29.0,22.4,31.07,NW,314,0.0,0.0,76,0.00,,---,0.00,VWS V14.01,2013-04-16 10:26:00,
2013-04-16 03:31:00,28.8,22.2,31.07,NW,304,0.0,0.0,76,0.00,,---,0.00,VWS V14.01,2013-04-16 10:31:00,
2013-04-16 03:36:00,28.8,21.9,31.07,WNW,297,0.0,0.0,75,0.00,,---,0.00,VWS V14.01,2013-04-16 10:36:00,
2013-04-16 03:42:00,28.8,21.6,31.07,NW,305,0.0,0.0,74,0.00,,---,0.00,VWS V14.01,2013-04-16 10:42:00,
2013-04-16 03:47:00,29.0,21.4,31.07,WNW,302,0.0,0.0,73,0.00,,---,0.00,VWS V14.01,2013-04-16 10:47:00,
2013-04-16 03:52:00,28.8,21.2,31.07,NW,312,0.0,0.0,73,0.00,,---,0.00,VWS V14.01,2013-04-16 10:52:00,
2013-04-16 03:57:00,28.8,21.2,31.07,NW,307,0.0,0.0,73,0.00,,---,0.00,VWS V14.01,2013-04-16 10:57:00,
2013-04-16 04:02:00,28.7,21.1,31.07,NW,314,0.0,0.0,73,0.00,,---,0.00,VWS V14.01,2013-04-16 11:02:00,
2013-04-16 04:07:00,28.8,20.9,31.06,WNW,301,0.0,0.0,72,0.00,,---,0.00,VWS V14.01,2013-04-16 11:07:00,
2013-04-16 04:12:00,28.8,20.6,31.06,NW,304,0.0,0.0,71,0.00,,---,0.00,VWS V14.01,2013-04-16 11:12:00,
2013-04-16 04:17:00,29.0,20.8,31.06,NW,306,0.0,0.0,71,0.00,,---,0.00,VWS V14.01,2013-04-16 11:17:00,
2013-04-16 04:23:00,29.0,20.8,31.06,NW,305,0.0,0.0,71,0.00,,---,0.00,VWS V14.01,2013-04-16 11:23:00,
2013-04-16 04:28:00,29.0,20.8,31.06,NW,322,0.0,0.0,71,0.00,,---,0.00,VWS V14.01,2013-04-16 11:28:00,
2013-04-16 04:33:00,28.8,20.6,31.06,NW,313,0.0,0.0,71,0.00,,---,0.00,VWS V14.01,2013-04-16 11:33:00,
2013-04-16 04:38:00,28.8,20.6,31.06,NW,318,0.0,0.0,71,0.00,,---,0.00,VWS V14.01,2013-04-16 11:38:00,
2013-04-16 04:43:00,28.8,20.6,31.06,NW,313,0.0,0.0,71,0.00,,---,0.00,VWS V14.01,2013-04-16 11:43:00,
2013-04-16 04:48:00,28.7,20.8,31.06,NW,307,0.0,0.0,72,0.00,,---,0.00,VWS V14.01,2013-04-16 11:48:00,
2013-04-16 04:53:00,28.8,20.6,31.06,NW,316,0.0,0.0,71,0.00,,---,0.00,VWS V14.01,2013-04-16 11:53:00,
2013-04-16 04:58:00,28.8,20.9,31.06,NW,325,0.0,0.0,72,0.00,,---,0.00,VWS V14.01,2013-04-16 11:58:00,
2013-04-16 05:03:00,28.7,21.1,31.06,NNW,340,0.0,0.0,73,0.00,,---,0.00,VWS V14.01,2013-04-16 12:03:00,
2013-04-16 05:09:00,28.7,21.1,31.06,NNW,333,0.0,0.0,73,0.00,,---,0.00,VWS V14.01,2013-04-16 12:09:00,
2013-04-16 05:14:00,28.4,21.5,31.06,North,355,0.0,0.0,75,0.00,,---,0.00,VWS V14.01,2013-04-16 12:14:00,
2013-04-16 05:19:00,27.9,21.3,31.06,North,355,0.0,0.0,76,0.00,,---,0.00,VWS V14.01,2013-04-16 12:19:00,
2013-04-16 05:24:00,27.6,21.4,31.06,North,355,0.0,0.0,77,0.00,,---,0.00,VWS V14.01,2013-04-16 12:24:00,
2013-04-16 05:29:00,27.5,21.9,31.06,NNW,340,0.0,0.0,79,0.00,,---,0.00,VWS V14.01,2013-04-16 12:29:00,
2013-04-16 05:34:00,27.6,22.5,31.06,NNW,336,0.0,0.0,81,0.00,,---,0.00,VWS V14.01,2013-04-16 12:34:00,
2013-04-16 05:39:00,27.6,23.1,31.06,NW,326,0.0,0.0,83,0.00,,---,0.00,VWS V14.01,2013-04-16 12:39:00,
2013-04-16 05:44:00,27.6,23.4,31.06,NW,317,0.0,0.0,84,0.00,,---,0.00,VWS V14.01,2013-04-16 12:44:00,
2013-04-16 05:49:00,27.6,23.7,31.06,NW,321,0.0,0.0,85,0.00,,---,0.00,VWS V14.01,2013-04-16 12:49:00,
2013-04-16 05:54:00,27.3,23.7,31.06,NNW,337,0.0,0.0,86,0.00,,---,0.00,VWS V14.01,2013-04-16 12:54:00,
2013-04-16 05:59:00,27.2,23.9,31.05,NNW,327,0.0,0.0,87,0.00,,---,0.00,VWS V14.01,2013-04-16 12:59:00,
2013-04-16 06:05:00,27.2,24.1,31.04,North,360,0.0,0.0,88,0.00,,---,0.00,VWS V14.01,2013-04-16 13:05:00,
2013-04-16 06:10:00,27.3,24.5,31.04,NNW,336,0.0,0.0,89,0.00,,---,0.00,VWS V14.01,2013-04-16 13:10:00,
2013-04-16 06:15:00,27.3,24.5,31.04,NNW,327,0.0,0.0,89,0.00,,---,0.00,VWS V14.01,2013-04-16 13:15:00,
2013-04-16 06:20:00,27.5,24.7,31.04,NNW,345,0.0,0.0,89,0.00,,---,0.00,VWS V14.01,2013-04-16 13:20:00,
2013-04-16 06:25:00,27.5,24.7,31.04,North,351,0.0,0.0,89,0.00,,---,0.00,VWS V14.01,2013-04-16 13:25:00,
2013-04-16 06:30:00,27.3,24.8,31.04,NNW,330,0.0,0.0,90,0.00,,---,0.00,VWS V14.01,2013-04-16 13:30:00,
2013-04-16 06:35:00,27.3,24.8,31.04,North,360,0.0,0.0,90,0.00,,---,0.00,VWS V14.01,2013-04-16 13:35:00,
2013-04-16 06:40:00,27.3,24.8,31.04,NNE,15,0.0,0.0,90,0.00,,---,0.00,VWS V14.01,2013-04-16 13:40:00,
2013-04-16 06:46:00,27.3,24.8,31.04,North,360,0.0,0.0,90,0.00,,---,0.00,VWS V14.01,2013-04-16 13:46:00,
2013-04-16 06:51:00,27.2,24.7,31.04,North,355,0.0,0.0,90,0.00,,---,0.00,VWS V14.01,2013-04-16 13:51:00,
2013-04-16 06:56:00,27.2,24.9,31.04,North,349,0.0,0.0,91,0.00,,---,0.00,VWS V14.01,2013-04-16 13:56:00,
2013-04-16 07:01:00,27.2,24.9,31.04,NNW,340,0.0,0.0,91,0.00,,---,0.00,VWS V14.01,2013-04-16 14:01:00,
2013-04-16 07:06:00,27.2,24.9,31.04,North,5,0.0,0.0,91,0.00,,---,0.00,VWS V14.01,2013-04-16 14:06:00,
2013-04-16 07:11:00,27.2,24.9,31.04,North,10,0.0,0.0,91,0.00,,---,0.00,VWS V14.01,2013-04-16 14:11:00,
2013-04-16 07:17:00,27.2,24.9,31.04,NNE,16,0.0,0.0,91,0.00,,---,0.00,VWS V14.01,2013-04-16 14:17:00,
2013-04-16 07:22:00,27.2,24.9,31.04,NNE,16,0.0,0.0,91,0.00,,---,0.00,VWS V14.01,2013-04-16 14:22:00,
2013-04-16 07:27:00,27.2,24.9,31.04,North,9,0.0,0.0,91,0.00,,---,0.00,VWS V14.01,2013-04-16 14:27:00,
2013-04-16 07:32:00,27.2,24.9,31.04,North,355,0.0,0.0,91,0.00,,---,0.00,VWS V14.01,2013-04-16 14:32:00,
2013-04-16 07:37:00,27.2,24.9,31.04,NNW,347,0.0,0.0,91,0.00,,---,0.00,VWS V14.01,2013-04-16 14:37:00,
2013-04-16 07:42:00,27.3,25.0,31.04,North,360,0.0,0.0,91,0.00,,---,0.00,VWS V14.01,2013-04-16 14:42:00,
2013-04-16 07:47:00,27.3,25.0,31.04,North,351,0.0,0.0,91,0.00,,---,0.00,VWS V14.01,2013-04-16 14:47:00,
2013-04-16 07:52:00,27.5,25.2,31.04,North,355,0.0,0.0,91,0.00,,---,0.00,VWS V14.01,2013-04-16 14:52:00,
2013-04-16 07:58:00,27.6,25.3,31.04,NNW,344,0.0,0.0,91,0.00,,---,0.00,VWS V14.01,2013-04-16 14:58:00,
2013-04-16 08:03:00,27.6,25.3,31.04,NNW,336,0.0,0.0,91,0.00,,---,0.00,VWS V14.01,2013-04-16 15:03:00,
2013-04-16 08:08:00,27.6,25.3,31.04,North,355,0.0,0.0,91,0.00,,---,0.00,VWS V14.01,2013-04-16 15:08:00,
2013-04-16 08:13:00,27.6,25.3,31.04,NNW,343,0.0,0.0,91,0.00,,---,0.00,VWS V14.01,2013-04-16 15:13:00,
2013-04-16 08:18:00,27.6,25.3,31.04,North,350,0.0,0.0,91,0.00,,---,0.00,VWS V14.01,2013-04-16 15:18:00,
2013-04-16 08:24:00,27.6,25.3,31.04,North,360,0.0,0.0,91,0.00,,---,0.00,VWS V14.01,2013-04-16 15:24:00,
2013-04-16 08:29:00,27.8,25.5,31.04,NNE,14,0.0,0.0,91,0.00,,---,0.00,VWS V14.01,2013-04-16 15:29:00,
2013-04-16 08:34:00,27.6,25.3,31.04,North,5,0.0,0.0,91,0.00,,---,0.00,VWS V14.01,2013-04-16 15:34:00,
2013-04-16 08:39:00,27.8,25.5,31.04,North,360,0.0,0.0,91,0.00,,---,0.00,VWS V14.01,2013-04-16 15:39:00,
2013-04-16 08:44:00,27.8,25.8,31.04,North,360,0.0,0.0,92,0.00,,---,0.00,VWS V14.01,2013-04-16 15:44:00,
2013-04-16 08:49:00,28.4,26.4,31.04,North,355,0.0,0.0,92,0.00,,---,0.00,VWS V14.01,2013-04-16 15:49:00,
2013-04-16 08:54:00,28.7,26.7,31.04,North,5,0.0,0.0,92,0.00,,---,0.00,VWS V14.01,2013-04-16 15:54:00,
2013-04-16 08:59:00,28.5,26.5,31.04,North,355,0.0,0.0,92,0.00,,---,0.00,VWS V14.01,2013-04-16 15:59:00,
2013-04-16 09:04:00,28.7,26.7,31.04,North,5,0.0,0.0,92,0.00,,---,0.00,VWS V14.01,2013-04-16 16:04:00,
2013-04-16 09:09:00,28.8,26.8,31.04,NNW,340,0.0,0.0,92,0.00,,---,0.00,VWS V14.01,2013-04-16 16:09:00,
2013-04-16 09:14:00,29.0,27.0,31.04,NNW,348,0.0,0.0,92,0.00,,---,0.00,VWS V14.01,2013-04-16 16:14:00,
2013-04-16 09:20:00,29.1,27.1,31.04,North,350,0.0,0.0,92,0.00,,---,0.00,VWS V14.01,2013-04-16 16:20:00,
2013-04-16 09:25:00,29.4,27.4,31.04,NNW,346,0.0,0.0,92,0.00,,---,0.00,VWS V14.01,2013-04-16 16:25:00,
2013-04-16 09:30:00,29.4,27.4,31.04,North,351,0.0,0.0,92,0.00,,---,0.00,VWS V14.01,2013-04-16 16:30:00,
2013-04-16 09:35:00,29.4,27.4,31.04,North,360,0.0,0.0,92,0.00,,---,0.00,VWS V14.01,2013-04-16 16:35:00,
2013-04-16 09:40:00,29.4,27.4,31.04,North,5,0.0,0.0,92,0.00,,---,0.00,VWS V14.01,2013-04-16 16:40:00,
2013-04-16 09:45:00,29.7,27.7,31.05,North,360,0.0,0.0,92,0.00,,---,0.00,VWS V14.01,2013-04-16 16:45:00,
2013-04-16 09:50:00,29.3,27.3,31.04,North,5,0.0,0.0,92,0.00,,---,0.00,VWS V14.01,2013-04-16 16:50:00,
2013-04-16 09:55:00,30.1,28.1,31.05,North,360,0.0,0.0,92,0.00,,---,0.00,VWS V14.01,2013-04-16 16:55:00,
2013-04-16 10:00:00,30.6,28.3,31.05,North,5,0.0,0.0,91,0.00,,---,0.00,VWS V14.01,2013-04-16 17:00:00,
2013-04-16 10:05:00,31.2,28.1,31.05,NNE,24,0.0,0.0,88,0.00,,---,0.00,VWS V14.01,2013-04-16 17:05:00,
2013-04-16 10:10:00,30.9,26.9,31.05,North,9,0.0,0.0,85,0.00,,---,0.00,VWS V14.01,2013-04-16 17:10:00,
2013-04-16 10:16:00,31.9,27.3,31.06,North,355,0.0,0.0,83,0.00,,---,0.00,VWS V14.01,2013-04-16 17:16:00,
2013-04-16 10:21:00,32.2,27.6,31.06,NNE,27,0.0,0.0,83,0.00,,---,0.00,VWS V14.01,2013-04-16 17:21:00,
2013-04-16 10:26:00,32.4,26.0,31.06,North,11,0.0,0.0,77,0.00,,---,0.00,VWS V14.01,2013-04-16 17:26:00,
2013-04-16 10:32:00,32.4,25.7,31.06,NNE,24,0.0,0.0,76,0.00,,---,0.00,VWS V14.01,2013-04-16 17:32:00,
2013-04-16 10:37:00,31.3,25.2,31.05,NNE,24,0.0,0.0,78,0.00,,---,0.00,VWS V14.01,2013-04-16 17:37:00,
2013-04-16 10:42:00,32.2,25.8,31.06,NE,40,0.0,0.0,77,0.00,,---,0.00,VWS V14.01,2013-04-16 17:42:00,
2013-04-16 10:47:00,32.8,25.4,31.06,NNE,19,0.0,0.0,74,0.00,,---,0.00,VWS V14.01,2013-04-16 17:47:00,
2013-04-16 10:52:00,32.9,24.5,31.06,NNE,30,0.0,0.0,71,0.01,,---,0.01,VWS V14.01,2013-04-16 17:52:00,
2013-04-16 10:57:00,32.8,23.4,31.06,NNE,24,0.0,0.0,68,0.01,,---,0.01,VWS V14.01,2013-04-16 17:57:00,
2013-04-16 11:02:00,32.7,24.4,31.06,NE,37,0.0,0.0,71,0.01,,---,0.01,VWS V14.01,2013-04-16 18:02:00,
2013-04-16 11:07:00,33.5,24.4,31.07,North,11,0.0,0.0,69,0.01,,---,0.01,VWS V14.01,2013-04-16 18:07:00,
2013-04-16 11:13:00,34.1,22.8,31.07,NNE,28,0.0,0.0,63,0.01,,---,0.01,VWS V14.01,2013-04-16 18:13:00,
2013-04-16 11:18:00,34.3,23.8,31.07,NNE,26,0.0,0.0,65,0.01,,---,0.01,VWS V14.01,2013-04-16 18:18:00,
2013-04-16 11:23:00,33.4,22.2,31.06,North,5,0.0,0.0,63,0.01,,---,0.01,VWS V14.01,2013-04-16 18:23:00,
2013-04-16 11:28:00,32.9,22.4,31.06,NNW,339,0.0,0.0,65,0.01,,---,0.01,VWS V14.01,2013-04-16 18:28:00,
2013-04-16 11:33:00,31.3,24.3,31.06,NNW,348,0.0,0.0,75,0.01,,---,0.01,VWS V14.01,2013-04-16 18:33:00,
2013-04-16 11:38:00,30.6,25.5,31.05,NNW,333,0.0,0.0,81,0.01,,---,0.01,VWS V14.01,2013-04-16 18:38:00,
2013-04-16 11:43:00,31.6,26.5,31.06,NNW,348,0.0,0.0,81,0.01,,---,0.01,VWS V14.01,2013-04-16 18:43:00,
2013-04-16 11:48:00,31.3,25.6,31.05,NW,325,0.0,0.0,79,0.01,,---,0.01,VWS V14.01,2013-04-16 18:48:00,
2013-04-16 11:53:00,31.5,25.1,31.06,NNW,342,0.0,0.0,77,0.00,,---,0.01,VWS V14.01,2013-04-16 18:53:00,
2013-04-16 11:58:00,31.3,25.2,31.05,NNW,327,0.0,0.0,78,0.00,,---,0.01,VWS V14.01,2013-04-16 18:58:00,
2013-04-16 12:03:00,31.2,25.1,31.05,NNW,337,0.0,0.0,78,0.00,,---,0.01,VWS V14.01,2013-04-16 19:03:00,
2013-04-16 12:08:00,30.7,25.6,31.06,NNW,330,0.0,0.0,81,0.00,,---,0.01,VWS V14.01,2013-04-16 19:08:00,
2013-04-16 12:13:00,30.1,25.9,31.05,NNW,336,0.0,0.0,84,0.00,,---,0.01,VWS V14.01,2013-04-16 19:13:00,
2013-04-16 12:18:00,30.3,26.6,31.05,NW,305,0.0,0.0,86,0.00,,---,0.01,VWS V14.01,2013-04-16 19:18:00,
2013-04-16 12:24:00,30.6,27.2,31.06,NNW,346,0.0,0.0,87,0.00,,---,0.01,VWS V14.01,2013-04-16 19:24:00,
2013-04-16 12:29:00,31.8,27.2,31.06,North,355,0.0,0.0,83,0.00,,---,0.01,VWS V14.01,2013-04-16 19:29:00,
2013-04-16 12:34:00,32.9,27.1,31.07,NNW,330,0.0,0.0,79,0.00,,---,0.01,VWS V14.01,2013-04-16 19:34:00,
2013-04-16 12:39:00,33.8,27.4,31.07,NNW,331,0.0,0.0,77,0.00,,---,0.01,VWS V14.01,2013-04-16 19:39:00,
2013-04-16 12:44:00,34.0,25.9,31.07,North,360,0.0,0.0,72,0.00,,---,0.01,VWS V14.01,2013-04-16 19:44:00,
2013-04-16 12:49:00,34.0,25.3,31.07,North,5,0.0,0.0,70,0.00,,---,0.01,VWS V14.01,2013-04-16 19:49:00,
2013-04-16 12:54:00,33.1,27.3,31.07,NE,45,0.0,0.0,79,0.00,,---,0.01,VWS V14.01,2013-04-16 19:54:00,
2013-04-16 12:59:00,32.4,26.9,31.06,NNE,32,0.0,0.0,80,0.00,,---,0.01,VWS V14.01,2013-04-16 19:59:00,
2013-04-16 13:04:00,32.8,25.4,31.07,NNE,24,0.0,0.0,74,0.00,,---,0.01,VWS V14.01,2013-04-16 20:04:00,
2013-04-16 13:09:00,33.2,25.8,31.07,NNE,30,0.0,0.0,74,0.01,,---,0.02,VWS V14.01,2013-04-16 20:09:00,
2013-04-16 13:15:00,33.5,25.5,31.07,North,5,0.0,0.0,72,0.01,,---,0.02,VWS V14.01,2013-04-16 20:15:00,
2013-04-16 13:20:00,33.8,26.1,31.07,NNW,340,0.0,0.0,73,0.01,,---,0.02,VWS V14.01,2013-04-16 20:20:00,
2013-04-16 13:25:00,33.8,25.1,31.07,NE,42,0.0,0.0,70,0.01,,---,0.02,VWS V14.01,2013-04-16 20:25:00,
2013-04-16 13:30:00,33.1,24.7,31.07,NE,36,0.0,0.0,71,0.01,,---,0.02,VWS V14.01,2013-04-16 20:30:00,
2013-04-16 13:35:00,33.1,24.7,31.07,North,355,0.0,0.0,71,0.02,,---,0.03,VWS V14.01,2013-04-16 20:35:00,
2013-04-16 13:41:00,33.4,24.0,31.07,North,360,0.0,0.0,68,0.02,,---,0.03,VWS V14.01,2013-04-16 20:41:00,
2013-04-16 13:46:00,34.9,25.1,31.08,NNW,329,0.0,0.0,67,0.02,,---,0.03,VWS V14.01,2013-04-16 20:46:00,
2013-04-16 13:51:00,35.5,23.0,31.08,NNE,13,0.0,0.0,60,0.02,,---,0.03,VWS V14.01,2013-04-16 20:51:00,
2013-04-16 13:56:00,35.5,23.0,31.08,WNW,302,0.0,0.0,60,0.02,,---,0.03,VWS V14.01,2013-04-16 20:56:00,